Latest Coastal Weather Observations for Wilsons Promontory

IDT60701

Issued at 1:42 pm EDT Thursday 30 March 2017 (issued every 10 minutes, with the page automatically refreshed every 10 minutes)

About coastal observations | Map of coastal stations | Coastal observations for TAS | Marine services | Other Formats
Station Details ID: 085096 Name: WILSONS PROMONTORY LIGHTHOUSE Lat: -39.13 Lon: 146.42 Height: 95.0 m
Data from the previous 72 hours. | See also: Recent months at Wilsons Promontory
Date/Time
EDT
Temp
°C
Wind Pressure Rain since
9am
mm
Weather Cloud Vis
km
Sea
Height
m
Swell
Dir  Spd
kts
Gust
kts
hPa Trend Height
m
Period
s
Dir
30/01:30pm 15.3 WSW 26 32 1014.7 - 0.0 - - - - - - -
30/01:00pm 15.0 WSW 29 34 1014.5 - 0.0 - - - - - - -
30/12:30pm 15.0 SW 27 35 1014.6 - 0.0 - - - - - - -
30/12:17pm 14.6 SW 25 38 1014.0 - 0.0 - - - - - - -
30/12:16pm 14.5 SW 23 38 1013.9 - 0.0 - - - - - - -
30/12:15pm 14.6 SSE 17 38 1013.8 - 0.0 - - - - - - -
30/12:13pm 14.8 S 16 38 1013.9 - 0.0 - - - - - - -
30/12:00pm 15.0 SW 33 38 1013.5 - 0.0 - - - - - - -
30/11:30am 15.1 WSW 27 32 1014.1 - 0.0 - - - - - - -
30/11:00am 14.9 WSW 29 34 1013.9 - 0.0 - - - - - - -
30/10:32am 14.4 WSW 36 39 1013.4 - 0.0 - - - - - - -
30/10:30am 14.6 W 25 38 1013.4 - 0.0 - - - - - - -
30/10:12am 14.7 W 25 35 1013.7 - 0.0 - - - - - - -
30/10:00am 14.5 WSW 27 35 1013.4 - 0.0 - - - - - - -
30/09:55am 14.8 W 25 35 1013.6 - 0.0 - - - - - - -
30/09:30am 14.3 WSW 26 34 1013.2 - 0.0 - - - - - - -
30/09:00am 14.0 WSW 27 32 1012.8 - 6.8 - - - - - - -
30/08:30am 13.7 SW 28 35 1012.5 - 6.8 - - - - - - -
30/08:18am 13.9 SW 29 32 1012.3 - 6.8 - - - - - - -
30/08:00am 12.8 W 15 25 1012.8 - 6.8 - - - - - - -
30/07:57am 13.1 W 15 25 1012.7 - 6.8 - - - - - - -
30/07:51am 12.6 W 15 25 1012.5 - 6.8 - - - - - - -
30/07:30am 11.8 WNW 20 26 1011.9 - 6.8 - - - - - - -
30/07:18am 11.7 WNW 17 27 1012.0 - 6.8 - - - - - - -
30/07:00am 11.4 WNW 20 29 1011.6 - 6.8 - - - - - - -
30/06:30am 11.7 WNW 17 24 1011.2 - 6.8 - - - - - - -
30/06:00am 11.6 WNW 9 16 1011.0 - 6.8 - - - - - - -
30/05:30am 11.5 WNW 14 17 1011.2 - 6.8 - - - - - - -
30/05:00am 11.4 W 16 22 1010.8 - 6.6 - - - - - - -
30/04:33am 11.4 W 17 27 1011.1 - 6.2 - - - - - - -
30/04:30am 11.4 W 20 29 1011.0 - 6.0 - - - - - - -
30/04:21am 11.2 W 19 29 1010.9 - 5.8 - - - - - - -
30/04:00am 11.2 W 18 27 1010.8 - 5.0 - - - - - - -
30/03:41am 11.3 WNW 17 27 1010.5 - 4.0 - - - - - - -
30/03:30am 11.4 WNW 19 28 1010.1 - 3.8 - - - - - - -
30/03:00am 11.1 W 18 25 1009.9 - 3.2 - - - - - - -
30/02:30am 10.5 W 22 28 1010.0 - 2.6 - - - - - - -
30/02:16am 10.8 W 17 27 1009.7 - 1.6 - - - - - - -
30/02:00am 11.9 W 13 18 1009.7 - 0.4 - - - - - - -
30/01:30am 12.2 W 19 24 1009.6 - 0.2 - - - - - - -
30/01:00am 13.5 W 16 24 1009.5 - 0.2 - - - - - - -
30/12:30am 13.4 W 21 31 1009.3 - 0.2 - - - - - - -
30/12:07am 13.3 WSW 24 34 1009.4 - 0.2 - - - - - - -
30/12:00am 13.1 WSW 28 34 1008.9 - 0.2 - - - - - - -
 
Date/Time
EDT
Temp
°C
Wind Pressure Rain since
9am
mm
Weather Cloud Vis
km
Sea
Height
m
Swell
Dir  Spd
kts
Gust
kts
hPa Trend Height
m
Period
s
Dir
29/11:30pm 13.2 W 26 38 1008.9 - 0.2 - - - - - - -
29/11:07pm 13.5 W 24 34 1009.0 - 0.0 - - - - - - -
29/11:00pm 13.0 W 27 34 1008.4 - 0.0 - - - - - - -
29/10:34pm 14.2 WSW 27 37 1008.3 - 0.0 - - - - - - -
29/10:30pm 14.2 WSW 27 34 1008.4 - 0.0 - - - - - - -
29/10:00pm 13.7 SW 29 37 1007.9 - 0.0 - - - - - - -
29/09:41pm 13.4 SW 29 39 1007.4 - 0.0 - - - - - - -
29/09:35pm 13.3 SW 34 39 1007.5 - 0.0 - - - - - - -
29/09:32pm 13.2 SW 19 32 1007.3 - 0.0 - - - - - - -
29/09:30pm 13.3 NNW 13 39 1007.0 - 0.0 - - - - - - -
29/09:25pm 14.0 SW 18 41 1006.7 - 0.0 - - - - - - -
29/09:24pm 13.9 SSE 15 41 1006.8 - 0.0 - - - - - - -
29/09:23pm 14.0 SW 29 41 1006.9 - 0.0 - - - - - - -
29/09:20pm 13.8 SW 34 41 1006.9 - 0.0 - - - - - - -
29/09:16pm 14.1 SW 17 42 1006.9 - 0.0 - - - - - - -
29/09:03pm 13.4 SW 34 45 1006.6 - 0.0 - - - - - - -
29/09:00pm 13.4 SW 20 45 1006.5 - 0.0 - - - - - - -
29/08:58pm 13.3 SW 23 45 1006.7 - 0.0 - - - - - - -
29/08:54pm 14.2 SW 34 44 1006.6 - 0.0 - - - - - - -
29/08:30pm 14.4 WSW 37 42 1006.3 - 0.0 - - - - - - -
29/08:20pm 14.7 SW 34 44 1005.7 - 0.0 - - - - - - -
29/08:14pm 14.8 SW 37 43 1005.5 - 0.0 - - - - - - -
29/08:06pm 15.0 SW 24 47 1004.9 - 0.0 - - - - - - -
29/08:05pm 15.2 SW 37 47 1004.8 - 0.0 - - - - - - -
29/08:00pm 15.4 SW 39 47 1004.6 - 0.0 - - - - - - -
29/07:35pm 17.0 WSW 39 45 1004.0 - 0.0 - - - - - - -
29/07:33pm 19.4 W 23 33 1004.7 - 0.0 - - - - - - -
29/07:30pm 19.8 W 27 35 1004.5 - 0.0 - - - - - - -
29/07:23pm 20.0 W 15 35 1004.4 - 0.0 - - - - - - -
29/07:00pm 19.6 NW 9 15 1004.1 - 0.0 - - - - - - -
29/06:30pm 19.3 W 10 16 1004.0 - 0.0 - - - - - - -
29/06:00pm 19.5 WNW 12 19 1003.6 - 0.0 - - - - - - -
29/05:30pm 19.7 W 9 16 1003.8 - 0.0 - - - - - - -
29/05:00pm 19.6 W 9 18 1003.8 - 0.0 - - - - - - -
29/04:30pm 19.6 W 11 17 1004.0 - 0.0 - - - - - - -
29/04:00pm 19.5 W 9 16 1004.1 - 0.0 - - - - - - -
29/03:30pm 19.2 W 15 25 1004.2 - 0.0 - - - - - - -
29/03:25pm 19.4 W 15 25 1004.3 - 0.0 - - - - - - -
29/03:00pm 18.8 W 14 21 1004.3 - 0.0 - - - - - - -
29/02:30pm 18.5 W 12 18 1004.9 - 0.0 - - - - - - -
29/02:00pm 19.1 W 15 20 1005.1 - 0.0 - - - - - - -
29/01:30pm 18.9 W 13 19 1005.5 - 0.0 - - - - - - -
29/01:00pm 19.5 W 12 16 1006.0 - 0.0 - - - - - - -
29/12:30pm 20.6 W 6 13 1006.5 - 0.0 - - - - - - -
29/12:00pm 20.5 WSW 5 12 1006.6 - 0.0 - - - - - - -
29/11:30am 19.9 W 4 8 1007.1 - 0.0 - - - - - - -
29/11:00am 19.3 NNW 5 10 1007.4 - 0.0 - - - - - - -
29/10:30am 19.0 N 8 12 1007.6 - 0.0 - - - - - - -
29/10:00am 19.5 N 6 14 1007.7 - 0.0 - - - - - - -
29/09:30am 18.4 N 8 16 1007.9 - 0.0 - - - - - - -
29/09:00am 17.9 N 7 16 1008.0 - 0.0 - - - - - - -
29/08:30am 17.9 N 6 12 1008.2 - 0.0 - - - - - - -
29/08:00am 17.7 N 9 20 1008.1 - 0.0 - - - - - - -
29/07:30am 17.4 NNW 7 16 1008.4 - 0.0 - - - - - - -
29/07:00am 17.4 NNW 7 14 1008.2 - 0.0 - - - - - - -
29/06:30am 17.3 NNW 6 12 1008.3 - 0.0 - - - - - - -
29/06:00am 16.7 NE 1 7 1007.8 - 0.0 - - - - - - -
29/05:30am 15.4 NNE 10 14 1008.1 - 0.0 - - - - - - -
29/05:00am 15.3 NNE 10 15 1008.1 - 0.0 - - - - - - -
29/04:30am 15.6 NNE 13 18 1008.5 - 0.0 - - - - - - -
29/03:30am 15.8 N 13 19 1009.3 - 0.0 - - - - - - -
29/03:00am 15.9 N 13 18 1009.7 - 0.0 - - - - - - -
29/02:30am 15.6 NNE 9 12 1010.1 - 0.0 - - - - - - -
29/02:00am 15.7 NNE 8 11 1010.5 - 0.0 - - - - - - -
29/01:30am 15.8 N 8 11 1010.7 - 0.0 - - - - - - -
29/01:00am 16.0 N 8 11 1010.9 - 0.0 - - - - - - -
29/12:30am 15.7 N 7 9 1011.3 - 0.0 - - - - - - -
29/12:00am 15.7 N 6 8 1011.2 - 0.0 - - - - - - -
 
Date/Time
EDT
Temp
°C
Wind Pressure Rain since
9am
mm
Weather Cloud Vis
km
Sea
Height
m
Swell
Dir  Spd
kts
Gust
kts
hPa Trend Height
m
Period
s
Dir
28/11:30pm 15.9 N 8 11 1011.8 - 0.0 - - - - - - -
28/11:00pm 15.5 N 9 12 1012.2 - 0.0 - - - - - - -
28/10:30pm 16.5 WNW 9 11 1011.9 - 0.0 - - - - - - -
28/10:00pm 16.0 WNW 8 10 1012.3 - 0.0 - - - - - - -
28/09:30pm 16.1 WNW 8 11 1012.3 - 0.0 - - - - - - -
28/09:00pm 16.2 WNW 9 11 1012.0 - 0.0 - - - - - - -
28/08:30pm 16.2 WNW 10 11 1012.0 - 0.0 - - - - - - -
28/08:00pm 16.4 W 9 13 1011.7 - 0.0 - - - - - - -
28/07:30pm 16.8 W 12 15 1011.5 - 0.0 - - - - - - -
28/07:00pm 17.0 W 13 19 1011.5 - 0.0 - - - - - - -
28/06:30pm 17.3 W 13 19 1011.6 - 0.0 - - - - - - -
28/06:00pm 17.7 W 15 23 1011.1 - 0.0 - - - - - - -
28/05:30pm 17.9 W 14 22 1011.2 - 0.0 - - - - - - -
28/05:00pm 17.9 WNW 14 22 1011.2 - 0.0 - - - - - - -
28/04:32pm 17.9 W 15 25 1011.1 - 0.0 - - - - - - -
28/04:30pm 18.0 W 14 23 1011.2 - 0.0 - - - - - - -
28/04:00pm 18.0 W 17 24 1011.1 - 0.0 - - - - - - -
28/03:30pm 18.1 W 19 25 1011.2 - 0.0 - - - - - - -
28/03:00pm 18.1 W 17 25 1011.2 - 0.0 - - - - - - -
28/02:42pm 18.4 W 18 28 1011.5 - 0.0 - - - - - - -
28/02:30pm 18.1 W 18 26 1011.7 - 0.0 - - - - - - -
28/02:03pm 18.0 W 18 28 1011.8 - 0.0 - - - - - - -
28/02:00pm 18.0 W 17 25 1011.9 - 0.0 - - - - - - -
28/01:38pm 17.5 W 15 25 1012.2 - 0.0 - - - - - - -
28/01:30pm 17.5 W 21 29 1012.2 - 0.0 - - - - - - -
28/01:06pm 18.4 W 20 30 1012.3 - 0.0 - - - - - - -
28/01:00pm 18.2 W 23 30 1012.3 - 0.0 - - - - - - -
28/12:31pm 17.9 W 20 30 1012.6 - 0.0 - - - - - - -
28/12:30pm 17.8 W 21 30 1012.6 - 0.0 - - - - - - -
28/12:00pm 17.4 W 17 28 1012.6 - 0.0 - - - - - - -
28/11:30am 17.2 W 18 29 1012.8 - 0.0 - - - - - - -
28/11:07am 17.1 W 16 29 1012.7 - 0.0 - - - - - - -
28/11:00am 17.1 W 13 23 1013.0 - 0.0 - - - - - - -
28/10:50am 17.0 W 15 27 1012.9 - 0.0 - - - - - - -
28/10:30am 17.0 W 14 24 1012.9 - 0.0 - - - - - - -
28/10:06am 16.8 WNW 15 25 1012.8 - 0.0 - - - - - - -
28/10:00am 16.7 WNW 18 25 1012.7 - 0.0 - - - - - - -
28/09:30am 16.5 WNW 7 19 1012.7 - 0.0 - - - - - - -
28/09:00am 15.6 NW 13 22 1012.2 - 14.2 - - - - - - -
28/08:30am 15.6 NNW 7 13 1012.6 - 14.2 - - - - - - -
28/08:00am 15.8 NW 10 17 1012.4 - 14.2 - - - - - - -
28/07:30am 15.9 W 15 26 1011.9 - 14.2 - - - - - - -
28/07:00am 15.7 W 15 25 1011.7 - 14.2 - - - - - - -
28/06:56am 15.7 WNW 15 25 1011.9 - 14.2 - - - - - - -
28/06:30am 15.5 NW 10 25 1011.7 - 14.2 - - - - - - -
28/06:00am 15.4 NW 10 20 1011.3 - 14.2 - - - - - - -
28/05:30am 15.4 WNW 15 27 1010.8 - 14.2 - - - - - - -
28/05:10am 15.5 WNW 20 30 1010.8 - 14.2 - - - - - - -
28/05:00am 15.5 WNW 22 31 1010.7 - 14.2 - - - - - - -
28/04:30am 15.9 WNW 16 26 1011.0 - 14.2 - - - - - - -
28/04:26am 15.9 WNW 16 26 1011.0 - 14.2 - - - - - - -
28/04:00am 16.5 W 18 25 1010.9 - 14.2 - - - - - - -
28/03:45am 16.6 W 17 27 1010.9 - 14.2 - - - - - - -
28/03:30am 16.7 W 16 25 1011.1 - 14.2 - - - - - - -
28/03:00am 16.6 W 17 23 1010.9 - 14.2 - - - - - - -
28/02:30am 16.8 W 17 24 1011.3 - 14.2 - - - - - - -
28/02:01am 16.6 W 16 30 1011.2 - 14.2 - - - - - - -
28/02:00am 16.6 W 15 25 1011.5 - 14.2 - - - - - - -
28/01:30am 15.8 W 24 35 1011.2 - 14.2 - - - - - - -
28/01:00am 17.2 W 22 35 1011.0 - 14.0 - - - - - - -
28/12:32am 17.2 W 22 33 1010.9 - 14.0 - - - - - - -
28/12:30am 17.1 W 22 30 1011.0 - 14.0 - - - - - - -
28/12:00am 17.3 W 25 35 1010.6 - 14.0 - - - - - - -
 
Date/Time
EDT
Temp
°C
Wind Pressure Rain since
9am
mm
Weather Cloud Vis
km
Sea
Height
m
Swell
Dir  Spd
kts
Gust
kts
hPa Trend Height
m
Period
s
Dir
27/11:31pm 17.3 W 22 32 1010.7 - 14.0 - - - - - - -
27/11:30pm 17.3 W 23 32 1010.7 - 14.0 - - - - - - -
27/11:00pm 17.2 W 25 37 1010.7 - 14.0 - - - - - - -
27/10:30pm 17.3 W 27 40 1010.5 - 14.0 - - - - - - -
27/10:00pm 17.4 W 24 37 1010.5 - 14.0 - - - - - - -
27/09:30pm 17.4 W 26 37 1010.5 - 14.0 - - - - - - -
27/09:00pm 17.3 W 27 39 1010.0 - 14.0 - - - - - - -
27/08:30pm 17.2 W 22 35 1010.0 - 14.0 - - - - - - -
27/08:00pm 17.0 W 25 38 1009.3 - 14.0 - - - - - - -
27/07:30pm 16.8 W 27 39 1008.8 - 14.0 - - - - - - -
27/07:00pm 16.7 W 24 35 1008.8 - 14.0 - - - - - - -
27/06:30pm 16.6 W 31 43 1008.1 - 14.0 - - - - - - -
27/06:00pm 15.8 W 29 44 1007.5 - 14.0 - - - - - - -
27/05:30pm 14.2 W 30 43 1007.7 - 14.0 - - - - - - -
27/05:00pm 13.5 W 27 43 1008.1 - 12.8 - - - - - - -
27/04:59pm 13.6 W 26 46 1008.2 - 12.6 - - - - - - -
27/04:44pm 14.7 W 38 48 1007.9 - 11.0 - - - - - - -
27/04:42pm 15.1 W 40 48 1007.6 - 11.0 - - - - - - -
27/04:30pm 15.4 W 28 40 1006.8 - 9.8 - - - - - - -
27/04:19pm 15.1 W 25 40 1007.6 - 8.4 - - - - - - -
27/04:00pm 16.0 W 37 53 1007.2 - 2.4 - - - - - - -
27/03:30pm 18.4 W 38 50 1006.2 - 0.0 - - - - - - -
27/03:00pm 19.6 W 33 49 1005.1 - 0.0 - - - - - - -
27/02:30pm 20.0 W 30 42 1005.2 - 0.0 - - - - - - -
27/02:24pm 19.9 W 33 48 1005.5 - 0.0 - - - - - - -
27/02:00pm 21.1 W 39 55 1003.5 - 0.0 - - - - - - -

Other Formats:

Comma delimited format used in spreadsheet applications
http://www.bom.gov.au/fwo/IDT60701/IDT60701.94893.axf

JavaScript Object Notation format (JSON) in row-major order
http://www.bom.gov.au/fwo/IDT60701/IDT60701.94893.json